Location: Cañada de la Miga
(34.7595°N, 106.2317°W)
Time: 03:54:09
(UTC+00:00)

Tiros 1 despin weight - Visible Passes

Search period start: 28 November 2021 00:00
Search period end: 08 December 2021 00:00
Orbit: 593 x 641 km, 48.2° (Epoch: 27 November)

Date Brightness Start Highest point End Pass type
(mag) Time Alt. Az. Time Alt. Az. Time Alt. Az.
28 Nov ? 01:03:23 10° NW 01:05:46 14° N 01:07:37 12° NNE visible
29 Nov ? 01:20:04 10° NNW 01:22:30 14° N 01:23:05 14° NNE visible
30 Nov ? 01:36:17 10° NNW 01:38:35 16° N 01:38:35 16° N visible
01 Dec ? 01:52:16 10° NNW 01:54:08 18° N 01:54:08 18° N visible
02 Dec ? 00:27:07 10° NNW 00:29:41 15° N 00:32:15 10° NE visible
02 Dec ? 02:08:11 10° NW 02:09:46 19° NNW 02:09:46 19° NNW visible
03 Dec ? 00:43:14 10° NNW 00:46:20 18° NNE 00:48:26 14° NE visible
03 Dec ? 02:24:09 10° NW 02:25:29 19° NW 02:25:29 19° NW visible
04 Dec ? 00:59:09 10° NW 01:02:52 26° NNE 01:04:16 22° NE visible
04 Dec ? 02:40:17 10° WNW 02:41:20 17° WNW 02:41:20 17° WNW visible
05 Dec ? 01:15:05 10° NW 01:19:16 41° NNE 01:20:18 35° ENE visible
05 Dec ? 02:56:44 10° WNW 02:57:23 13° WNW 02:57:23 13° WNW visible
06 Dec ? 01:31:06 10° NW 01:35:31 77° NE 01:36:33 51° ESE visible
07 Dec ? 01:47:19 10° WNW 01:51:37 52° SW 01:53:08 34° SSE visible
